Year,Month,Day,Hour,Minute,Value (Times are PST for temperature in C)
2014,04,26,00,00,6.40
2014,04,26,00,01,6.40
2014,04,26,00,02,6.30
2014,04,26,00,03,6.30
2014,04,26,00,04,6.30
2014,04,26,00,05,6.30
2014,04,26,00,06,6.30
2014,04,26,00,07,6.30
2014,04,26,00,08,6.30
2014,04,26,00,09,6.30
2014,04,26,00,10,6.30
2014,04,26,00,11,6.30
2014,04,26,00,12,6.30
2014,04,26,00,13,6.20
2014,04,26,00,14,6.20
2014,04,26,00,15,6.20
2014,04,26,00,16,6.20
2014,04,26,00,17,6.10
2014,04,26,00,18,6.10
2014,04,26,00,19,6.10
2014,04,26,00,20,6.00
2014,04,26,00,21,6.00
2014,04,26,00,22,5.90
2014,04,26,00,23,5.90
2014,04,26,00,24,5.80
2014,04,26,00,25,5.80
2014,04,26,00,26,5.80
2014,04,26,00,27,5.70
2014,04,26,00,28,5.70
2014,04,26,00,29,5.70
2014,04,26,00,30,5.60
2014,04,26,00,31,5.60
2014,04,26,00,32,5.50
2014,04,26,00,33,5.50
2014,04,26,00,34,5.40
2014,04,26,00,35,5.40
2014,04,26,00,36,5.30
2014,04,26,00,37,5.30
2014,04,26,00,38,5.20
2014,04,26,00,39,5.10
2014,04,26,00,40,5.10
2014,04,26,00,41,5.00
2014,04,26,00,42,4.90
2014,04,26,00,43,4.90
2014,04,26,00,44,4.80
2014,04,26,00,45,4.80
2014,04,26,00,46,4.70
2014,04,26,00,47,4.70
2014,04,26,00,48,4.70
2014,04,26,00,49,4.60
2014,04,26,00,50,4.60
2014,04,26,00,51,4.50
2014,04,26,00,52,4.50
2014,04,26,00,53,4.50
2014,04,26,00,54,4.40
2014,04,26,00,55,4.40
2014,04,26,00,56,4.40
2014,04,26,00,57,4.40
2014,04,26,00,58,4.30
2014,04,26,00,59,4.30
2014,04,26,01,00,4.30
2014,04,26,01,01,4.20
2014,04,26,01,02,4.20
2014,04,26,01,03,4.20
2014,04,26,01,04,4.20
2014,04,26,01,05,4.10
2014,04,26,01,06,4.10
2014,04,26,01,07,4.10
2014,04,26,01,08,4.10
2014,04,26,01,09,4.10
2014,04,26,01,10,4.10
2014,04,26,01,11,4.10
2014,04,26,01,12,4.00
2014,04,26,01,13,4.00
2014,04,26,01,14,4.00
2014,04,26,01,15,3.90
2014,04,26,01,16,3.90
2014,04,26,01,17,3.90
2014,04,26,01,18,3.90
2014,04,26,01,19,3.80
2014,04,26,01,20,3.80
2014,04,26,01,21,3.80
2014,04,26,01,22,3.80
2014,04,26,01,23,3.70
2014,04,26,01,24,3.70
2014,04,26,01,25,3.70
2014,04,26,01,26,3.70
2014,04,26,01,27,3.70
2014,04,26,01,28,3.70
2014,04,26,01,29,3.70
2014,04,26,01,30,3.70
2014,04,26,01,31,3.70
2014,04,26,01,32,3.70
2014,04,26,01,33,3.70
2014,04,26,01,34,3.70
2014,04,26,01,35,3.70
2014,04,26,01,36,3.70
2014,04,26,01,37,3.70
2014,04,26,01,38,3.70
2014,04,26,01,39,3.70
2014,04,26,01,40,3.70
2014,04,26,01,41,3.70
2014,04,26,01,42,3.70
2014,04,26,01,43,3.70
2014,04,26,01,44,3.70
2014,04,26,01,45,3.70
2014,04,26,01,46,3.80
2014,04,26,01,47,3.80
2014,04,26,01,48,3.80
2014,04,26,01,49,3.80
2014,04,26,01,50,3.80
2014,04,26,01,51,3.90
2014,04,26,01,52,3.90
2014,04,26,01,53,4.00
2014,04,26,01,54,4.00
2014,04,26,01,55,4.00
2014,04,26,01,56,4.00
2014,04,26,01,57,4.00
2014,04,26,01,58,4.00
2014,04,26,01,59,4.00
2014,04,26,02,00,4.00
2014,04,26,02,01,4.00
2014,04,26,02,02,4.00
2014,04,26,02,03,4.00
2014,04,26,02,04,4.00
2014,04,26,02,05,4.00
2014,04,26,02,06,3.90
2014,04,26,02,07,4.00
2014,04,26,02,08,4.00
2014,04,26,02,09,4.00
2014,04,26,02,10,4.00
2014,04,26,02,11,4.00
2014,04,26,02,12,4.00
2014,04,26,02,13,4.00
2014,04,26,02,14,4.00
2014,04,26,02,15,3.90
2014,04,26,02,16,3.90
2014,04,26,02,17,3.90
2014,04,26,02,18,3.90
2014,04,26,02,19,3.90
2014,04,26,02,20,3.90
2014,04,26,02,21,3.90
2014,04,26,02,22,4.00
2014,04,26,02,23,4.10
2014,04,26,02,24,4.10
2014,04,26,02,25,4.20
2014,04,26,02,26,4.30
2014,04,26,02,27,4.30
2014,04,26,02,28,4.40
2014,04,26,02,29,4.50
2014,04,26,02,30,4.50
2014,04,26,02,31,4.60
2014,04,26,02,32,4.60
2014,04,26,02,33,4.70
2014,04,26,02,34,4.70
2014,04,26,02,35,4.70
2014,04,26,02,36,4.70
2014,04,26,02,37,4.70
2014,04,26,02,38,4.60
2014,04,26,02,39,4.60
2014,04,26,02,40,4.60
2014,04,26,02,41,4.60
2014,04,26,02,42,4.50
2014,04,26,02,43,4.50
2014,04,26,02,44,4.50
2014,04,26,02,45,4.50
2014,04,26,02,46,4.50
2014,04,26,02,47,4.50
2014,04,26,02,48,4.50
2014,04,26,02,49,4.50
2014,04,26,02,50,4.50
2014,04,26,02,51,4.50
2014,04,26,02,52,4.50
2014,04,26,02,53,4.50
2014,04,26,02,54,4.50
2014,04,26,02,55,4.50
2014,04,26,02,56,4.60
2014,04,26,02,57,4.60
2014,04,26,02,58,4.70
2014,04,26,02,59,4.70
2014,04,26,03,00,4.80
2014,04,26,03,01,4.80
2014,04,26,03,02,4.90
2014,04,26,03,03,4.90
2014,04,26,03,04,4.90
2014,04,26,03,05,5.00
2014,04,26,03,06,5.10
2014,04,26,03,07,5.10
2014,04,26,03,08,5.20
2014,04,26,03,09,5.30
2014,04,26,03,10,5.30
2014,04,26,03,11,5.40
2014,04,26,03,12,5.40
2014,04,26,03,13,5.40
2014,04,26,03,14,5.40
2014,04,26,03,15,5.40
2014,04,26,03,16,5.40
2014,04,26,03,17,5.40
2014,04,26,03,18,5.40
2014,04,26,03,19,5.40
2014,04,26,03,20,5.40
2014,04,26,03,21,5.30
2014,04,26,03,22,5.30
2014,04,26,03,23,5.40
2014,04,26,03,24,5.40
2014,04,26,03,25,5.40
2014,04,26,03,26,5.40
2014,04,26,03,27,5.40
2014,04,26,03,28,5.40
2014,04,26,03,29,5.40
2014,04,26,03,30,5.40
2014,04,26,03,31,5.50
2014,04,26,03,32,5.50
2014,04,26,03,33,5.50
2014,04,26,03,34,5.50
2014,04,26,03,35,5.50
2014,04,26,03,36,5.50
2014,04,26,03,37,5.50
2014,04,26,03,38,5.60
2014,04,26,03,39,5.60
2014,04,26,03,40,5.60
2014,04,26,03,41,5.70
2014,04,26,03,42,5.70
2014,04,26,03,43,5.70
2014,04,26,03,44,5.70
2014,04,26,03,45,5.70
2014,04,26,03,46,5.70
2014,04,26,03,47,5.70
2014,04,26,03,48,5.80
2014,04,26,03,49,5.80
2014,04,26,03,50,5.80
2014,04,26,03,51,5.80
2014,04,26,03,52,5.80
2014,04,26,03,53,5.80
2014,04,26,03,54,5.90
2014,04,26,03,55,5.90
2014,04,26,03,56,5.90
2014,04,26,03,57,5.90
2014,04,26,03,58,5.90
2014,04,26,03,59,6.00
2014,04,26,04,00,6.00
2014,04,26,04,01,6.00
2014,04,26,04,02,6.10
2014,04,26,04,03,6.10
2014,04,26,04,04,6.10
2014,04,26,04,05,6.10
2014,04,26,04,06,6.10
2014,04,26,04,07,6.20
2014,04,26,04,08,6.20
2014,04,26,04,09,6.20
2014,04,26,04,10,6.20
2014,04,26,04,11,6.30
2014,04,26,04,12,6.30
2014,04,26,04,13,6.30
2014,04,26,04,14,6.30
2014,04,26,04,15,6.30
2014,04,26,04,16,6.30
2014,04,26,04,17,6.30
2014,04,26,04,18,6.30
2014,04,26,04,19,6.30
2014,04,26,04,20,6.30
2014,04,26,04,21,6.20
2014,04,26,04,22,6.20
2014,04,26,04,23,6.20
2014,04,26,04,24,6.20
2014,04,26,04,25,6.30
2014,04,26,04,26,6.30
2014,04,26,04,27,6.30
2014,04,26,04,28,6.30
2014,04,26,04,29,6.30
2014,04,26,04,30,6.20
2014,04,26,04,31,6.20
2014,04,26,04,32,6.20
2014,04,26,04,33,6.20
2014,04,26,04,34,6.20
2014,04,26,04,35,6.30
2014,04,26,04,36,6.30
2014,04,26,04,37,6.30
2014,04,26,04,38,6.20
2014,04,26,04,39,6.20
2014,04,26,04,40,6.20
2014,04,26,04,41,6.20
2014,04,26,04,42,6.20
2014,04,26,04,43,6.20
2014,04,26,04,44,6.20
2014,04,26,04,45,6.20
2014,04,26,04,46,6.20
2014,04,26,04,47,6.20
2014,04,26,04,48,6.20
2014,04,26,04,49,6.20
2014,04,26,04,50,6.20
2014,04,26,04,51,6.30
2014,04,26,04,52,6.30
2014,04,26,04,53,6.30
2014,04,26,04,54,6.30
2014,04,26,04,55,6.30
2014,04,26,04,56,6.30
2014,04,26,04,57,6.20
2014,04,26,04,58,6.20
2014,04,26,04,59,6.20
2014,04,26,05,00,6.20
2014,04,26,05,01,6.20
2014,04,26,05,02,6.20
2014,04,26,05,03,6.20
2014,04,26,05,04,6.20
2014,04,26,05,05,6.20
2014,04,26,05,06,6.20
2014,04,26,05,07,6.20
2014,04,26,05,08,6.20
2014,04,26,05,09,6.20
2014,04,26,05,10,6.20
2014,04,26,05,11,6.20
2014,04,26,05,12,6.20
2014,04,26,05,13,6.20
2014,04,26,05,14,6.20
2014,04,26,05,15,6.20
2014,04,26,05,16,6.20
2014,04,26,05,17,6.20
2014,04,26,05,18,6.20
2014,04,26,05,19,6.20
2014,04,26,05,20,6.20
2014,04,26,05,21,6.20
2014,04,26,05,22,6.20
2014,04,26,05,23,6.20
2014,04,26,05,24,6.20
2014,04,26,05,25,6.20
2014,04,26,05,26,6.10
2014,04,26,05,27,6.10
2014,04,26,05,28,6.10
2014,04,26,05,29,6.10
2014,04,26,05,30,6.10
2014,04,26,05,31,6.10
2014,04,26,05,32,6.10
2014,04,26,05,33,6.10
2014,04,26,05,34,6.10
2014,04,26,05,35,6.10
2014,04,26,05,36,6.10
2014,04,26,05,37,6.10
2014,04,26,05,38,6.10
2014,04,26,05,39,6.10
2014,04,26,05,40,6.10
2014,04,26,05,41,6.10
2014,04,26,05,42,6.10
2014,04,26,05,43,6.10
2014,04,26,05,44,6.10
2014,04,26,05,45,6.10
2014,04,26,05,46,6.10
2014,04,26,05,47,6.10
2014,04,26,05,48,6.10
2014,04,26,05,49,6.10
2014,04,26,05,50,6.00
2014,04,26,05,51,6.00
2014,04,26,05,52,6.00
2014,04,26,05,53,6.00
2014,04,26,05,54,5.90
2014,04,26,05,55,5.90
2014,04,26,05,56,5.90
2014,04,26,05,57,5.80
2014,04,26,05,58,5.80
2014,04,26,05,59,5.80
2014,04,26,06,00,5.80
2014,04,26,06,01,5.70
2014,04,26,06,02,5.70
2014,04,26,06,03,5.70
2014,04,26,06,04,5.70
2014,04,26,06,05,5.70
2014,04,26,06,06,5.70
2014,04,26,06,07,5.60
2014,04,26,06,08,5.60
2014,04,26,06,09,5.60
2014,04,26,06,10,5.50
2014,04,26,06,11,5.50
2014,04,26,06,12,5.40
2014,04,26,06,13,5.40
2014,04,26,06,14,5.30
2014,04,26,06,15,5.30
2014,04,26,06,16,5.30
2014,04,26,06,17,5.20
2014,04,26,06,18,5.10
2014,04,26,06,19,5.00
2014,04,26,06,20,5.00
2014,04,26,06,21,4.90
2014,04,26,06,22,4.80
2014,04,26,06,23,4.80
2014,04,26,06,24,4.70
2014,04,26,06,25,4.70
2014,04,26,06,26,4.60
2014,04,26,06,27,4.60
2014,04,26,06,28,4.60
2014,04,26,06,29,4.60
2014,04,26,06,30,4.50
2014,04,26,06,31,4.50
2014,04,26,06,32,4.40
2014,04,26,06,33,4.40
2014,04,26,06,34,4.40
2014,04,26,06,35,4.40
2014,04,26,06,36,4.30
2014,04,26,06,37,4.30
2014,04,26,06,38,4.30
2014,04,26,06,39,4.30
2014,04,26,06,40,4.30
2014,04,26,06,41,4.30
2014,04,26,06,42,4.20
2014,04,26,06,43,4.20
2014,04,26,06,44,4.20
2014,04,26,06,45,4.20
2014,04,26,06,46,4.20
2014,04,26,06,47,4.20
2014,04,26,06,48,4.20
2014,04,26,06,49,4.20
2014,04,26,06,50,4.20
2014,04,26,06,51,4.20
2014,04,26,06,52,4.20
2014,04,26,06,53,4.20
2014,04,26,06,54,4.20
2014,04,26,06,55,4.20
2014,04,26,06,56,4.20
2014,04,26,06,57,4.20
2014,04,26,06,58,4.20
2014,04,26,06,59,4.20
2014,04,26,07,00,4.20
2014,04,26,07,01,4.20
2014,04,26,07,02,4.20
2014,04,26,07,03,4.20
2014,04,26,07,04,4.20
2014,04,26,07,05,4.30
2014,04,26,07,06,4.30
2014,04,26,07,07,4.30
2014,04,26,07,08,4.40
2014,04,26,07,09,4.50
2014,04,26,07,10,4.50
2014,04,26,07,11,4.60
2014,04,26,07,12,4.70
2014,04,26,07,13,4.80
2014,04,26,07,14,4.80
2014,04,26,07,15,4.90
2014,04,26,07,16,5.00
2014,04,26,07,17,5.10
2014,04,26,07,18,5.20
2014,04,26,07,19,5.30
2014,04,26,07,20,5.40
2014,04,26,07,21,5.50
2014,04,26,07,22,5.70
2014,04,26,07,23,5.80
2014,04,26,07,24,5.90
2014,04,26,07,25,6.00
2014,04,26,07,26,6.10
2014,04,26,07,27,6.20
2014,04,26,07,28,6.30
2014,04,26,07,29,6.30
2014,04,26,07,30,6.40
2014,04,26,07,31,6.40
2014,04,26,07,32,6.50
2014,04,26,07,33,6.50
2014,04,26,07,34,6.60
2014,04,26,07,35,6.60
2014,04,26,07,36,6.70
2014,04,26,07,37,6.70
2014,04,26,07,38,6.80
2014,04,26,07,39,6.80
2014,04,26,07,40,6.90
2014,04,26,07,41,6.90
2014,04,26,07,42,7.00
2014,04,26,07,43,7.00
2014,04,26,07,44,7.10
2014,04,26,07,45,7.10
2014,04,26,07,46,7.20
2014,04,26,07,47,7.20
2014,04,26,07,48,7.20
2014,04,26,07,49,7.30
2014,04,26,07,50,7.30
2014,04,26,07,51,7.30
2014,04,26,07,52,7.40
2014,04,26,07,53,7.50
2014,04,26,07,54,7.50
2014,04,26,07,55,7.60
2014,04,26,07,56,7.60
2014,04,26,07,57,7.60
2014,04,26,07,58,7.70
2014,04,26,07,59,7.70
2014,04,26,08,00,7.70
2014,04,26,08,01,7.70
2014,04,26,08,02,7.70
2014,04,26,08,03,7.80
2014,04,26,08,04,7.80
2014,04,26,08,05,7.90
2014,04,26,08,06,7.90
2014,04,26,08,07,8.00
2014,04,26,08,08,8.00
2014,04,26,08,09,8.00
2014,04,26,08,10,8.10
2014,04,26,08,11,8.20
2014,04,26,08,12,8.20
2014,04,26,08,13,8.20
2014,04,26,08,14,8.20
2014,04,26,08,15,8.20
2014,04,26,08,16,8.30
2014,04,26,08,17,8.30
2014,04,26,08,18,8.30
2014,04,26,08,19,8.40
2014,04,26,08,20,8.40
2014,04,26,08,21,8.40
2014,04,26,08,22,8.40
2014,04,26,08,23,8.40
2014,04,26,08,24,8.40
2014,04,26,08,25,8.40
2014,04,26,08,26,8.40
2014,04,26,08,27,8.40
2014,04,26,08,28,8.40
2014,04,26,08,29,8.50
2014,04,26,08,30,8.50
2014,04,26,08,31,8.60
2014,04,26,08,32,8.70
2014,04,26,08,33,8.70
2014,04,26,08,34,8.80
2014,04,26,08,35,8.90
2014,04,26,08,36,9.00
2014,04,26,08,37,9.10
2014,04,26,08,38,9.10
2014,04,26,08,39,9.20
2014,04,26,08,40,9.30
2014,04,26,08,41,9.30
2014,04,26,08,42,9.30
2014,04,26,08,43,9.40
2014,04,26,08,44,9.30
2014,04,26,08,45,9.30
2014,04,26,08,46,9.30
2014,04,26,08,47,9.40
2014,04,26,08,48,9.40
2014,04,26,08,49,9.40
2014,04,26,08,50,9.40
2014,04,26,08,51,9.40
2014,04,26,08,52,9.40
2014,04,26,08,53,9.40
2014,04,26,08,54,9.40
2014,04,26,08,55,9.40
2014,04,26,08,56,9.40
2014,04,26,08,57,9.30
2014,04,26,08,58,9.40
2014,04,26,08,59,9.40
2014,04,26,09,00,9.40
2014,04,26,09,01,9.40
2014,04,26,09,02,9.50
2014,04,26,09,03,9.60
2014,04,26,09,04,9.60
2014,04,26,09,05,9.70
2014,04,26,09,06,9.70
2014,04,26,09,07,9.70
2014,04,26,09,08,9.70
2014,04,26,09,09,9.70
2014,04,26,09,10,9.70
2014,04,26,09,11,9.70
2014,04,26,09,12,9.70
2014,04,26,09,13,9.70
2014,04,26,09,14,9.70
2014,04,26,09,15,9.80
2014,04,26,09,16,9.80
2014,04,26,09,17,9.90
2014,04,26,09,18,9.90
2014,04,26,09,19,10.00
2014,04,26,09,20,9.90
2014,04,26,09,21,9.90
2014,04,26,09,22,9.90
2014,04,26,09,23,9.90
2014,04,26,09,24,9.90
2014,04,26,09,25,10.00
2014,04,26,09,26,10.00
2014,04,26,09,27,10.10
2014,04,26,09,28,10.20
2014,04,26,09,29,10.30
2014,04,26,09,30,10.40
2014,04,26,09,31,10.40
2014,04,26,09,32,10.40
2014,04,26,09,33,10.40
2014,04,26,09,34,10.30
2014,04,26,09,35,10.10
2014,04,26,09,36,10.00
2014,04,26,09,37,9.90
2014,04,26,09,38,9.80
2014,04,26,09,39,9.80
2014,04,26,09,40,9.80
2014,04,26,09,41,9.80
2014,04,26,09,42,9.80
2014,04,26,09,43,9.80
2014,04,26,09,44,9.80
2014,04,26,09,45,9.70
2014,04,26,09,46,9.70
2014,04,26,09,47,9.70
2014,04,26,09,48,9.70
2014,04,26,09,49,9.70
2014,04,26,09,50,9.70
2014,04,26,09,51,9.70
2014,04,26,09,52,9.70
2014,04,26,09,53,9.70
2014,04,26,09,54,9.80
2014,04,26,09,55,9.80
2014,04,26,09,56,9.90
2014,04,26,09,57,9.90
2014,04,26,09,58,10.00
2014,04,26,09,59,10.00
2014,04,26,10,00,10.00
2014,04,26,10,01,10.00
2014,04,26,10,02,10.10
2014,04,26,10,03,10.10
2014,04,26,10,04,10.10
2014,04,26,10,05,10.10
2014,04,26,10,06,10.10
2014,04,26,10,07,10.20
2014,04,26,10,08,10.20
2014,04,26,10,09,10.20
2014,04,26,10,10,10.20
2014,04,26,10,11,10.20
2014,04,26,10,12,10.20
2014,04,26,10,13,10.30
2014,04,26,10,14,10.30
2014,04,26,10,15,10.40
2014,04,26,10,16,10.40
2014,04,26,10,17,10.50
2014,04,26,10,18,10.60
2014,04,26,10,19,10.70
2014,04,26,10,20,10.80
2014,04,26,10,21,10.90
2014,04,26,10,22,10.90
2014,04,26,10,23,10.90
2014,04,26,10,24,10.90
2014,04,26,10,25,10.90
2014,04,26,10,26,10.90
2014,04,26,10,27,10.90
2014,04,26,10,28,10.90
2014,04,26,10,29,11.00
2014,04,26,10,30,11.00
2014,04,26,10,31,11.00
2014,04,26,10,32,10.90
2014,04,26,10,33,10.80
2014,04,26,10,34,10.80
2014,04,26,10,35,10.80
2014,04,26,10,36,10.90
2014,04,26,10,37,11.00
2014,04,26,10,38,11.10
2014,04,26,10,39,11.10
2014,04,26,10,40,11.20
2014,04,26,10,41,11.20
2014,04,26,10,42,11.20
2014,04,26,10,43,11.10
2014,04,26,10,44,11.10
2014,04,26,10,45,11.00
2014,04,26,10,46,10.90
2014,04,26,10,47,10.90
2014,04,26,10,48,10.80
2014,04,26,10,49,10.70
2014,04,26,10,50,10.70
2014,04,26,10,51,10.60
2014,04,26,10,52,10.60
2014,04,26,10,53,10.50
2014,04,26,10,54,10.50
2014,04,26,10,55,10.40
2014,04,26,10,56,10.20
2014,04,26,10,57,10.20
2014,04,26,10,58,10.20
2014,04,26,10,59,10.10
2014,04,26,11,00,10.10
2014,04,26,11,01,10.20
2014,04,26,11,02,10.20
2014,04,26,11,03,10.30
2014,04,26,11,04,10.30
2014,04,26,11,05,10.40
2014,04,26,11,06,10.30
2014,04,26,11,07,10.30
2014,04,26,11,08,10.30
2014,04,26,11,09,10.30
2014,04,26,11,10,10.30
2014,04,26,11,11,10.40
2014,04,26,11,12,10.40
2014,04,26,11,13,10.40
2014,04,26,11,14,10.40
2014,04,26,11,15,10.50
2014,04,26,11,16,10.60
2014,04,26,11,17,10.70
2014,04,26,11,18,10.70
2014,04,26,11,19,10.80
2014,04,26,11,20,10.80
2014,04,26,11,21,10.90
2014,04,26,11,22,10.90
2014,04,26,11,23,10.90
2014,04,26,11,24,10.90
2014,04,26,11,25,10.90
2014,04,26,11,26,10.80
2014,04,26,11,27,10.80
2014,04,26,11,28,10.80
2014,04,26,11,29,10.80
2014,04,26,11,30,10.80
2014,04,26,11,31,10.90
2014,04,26,11,32,10.90
2014,04,26,11,33,10.90
2014,04,26,11,34,10.90
2014,04,26,11,35,10.90
2014,04,26,11,36,11.00
2014,04,26,11,37,11.00
2014,04,26,11,38,11.00
2014,04,26,11,39,11.00
2014,04,26,11,40,11.10
2014,04,26,11,41,11.10
2014,04,26,11,42,11.10
2014,04,26,11,43,11.20
2014,04,26,11,44,11.20
2014,04,26,11,45,11.20
2014,04,26,11,46,11.20
2014,04,26,11,47,11.20
2014,04,26,11,48,11.10
2014,04,26,11,49,11.10
2014,04,26,11,50,11.20
2014,04,26,11,51,11.20
2014,04,26,11,52,11.20
2014,04,26,11,53,11.20
2014,04,26,11,54,11.30
2014,04,26,11,55,11.30
2014,04,26,11,56,11.40
2014,04,26,11,57,11.40
2014,04,26,11,58,11.40
2014,04,26,11,59,11.40
2014,04,26,12,00,11.50
2014,04,26,12,01,11.50
2014,04,26,12,02,11.50
2014,04,26,12,03,11.50
2014,04,26,12,04,11.60
2014,04,26,12,05,11.60
2014,04,26,12,06,11.60
2014,04,26,12,07,11.50
2014,04,26,12,08,11.40
2014,04,26,12,09,11.30
2014,04,26,12,10,11.30
2014,04,26,12,11,11.30
2014,04,26,12,12,11.20
2014,04,26,12,13,11.20
2014,04,26,12,14,11.20
2014,04,26,12,15,11.20
2014,04,26,12,16,11.10
2014,04,26,12,17,11.10
2014,04,26,12,18,11.00
2014,04,26,12,19,11.00
2014,04,26,12,20,10.90
2014,04,26,12,21,10.90
2014,04,26,12,22,10.80
2014,04,26,12,23,10.70
2014,04,26,12,24,10.60
2014,04,26,12,25,10.60
2014,04,26,12,26,10.60
2014,04,26,12,27,10.70
2014,04,26,12,28,10.70
2014,04,26,12,29,10.70
2014,04,26,12,30,10.70
2014,04,26,12,31,10.70
2014,04,26,12,32,10.70
2014,04,26,12,33,10.80
2014,04,26,12,34,10.80
2014,04,26,12,35,10.80
2014,04,26,12,36,10.80
2014,04,26,12,37,10.80
2014,04,26,12,38,10.80
2014,04,26,12,39,10.70
2014,04,26,12,40,10.70
2014,04,26,12,41,10.60
2014,04,26,12,42,10.60
2014,04,26,12,43,10.60
2014,04,26,12,44,10.60
2014,04,26,12,45,10.60
2014,04,26,12,46,10.50
2014,04,26,12,47,10.50
2014,04,26,12,48,10.40
2014,04,26,12,49,10.40
2014,04,26,12,50,10.40
2014,04,26,12,51,10.30
2014,04,26,12,52,10.30
2014,04,26,12,53,10.30
2014,04,26,12,54,10.30
2014,04,26,12,55,10.20
2014,04,26,12,56,10.20
2014,04,26,12,57,10.20
2014,04,26,12,58,10.20
2014,04,26,12,59,10.20
2014,04,26,13,00,10.20
2014,04,26,13,01,10.20
2014,04,26,13,02,10.30
2014,04,26,13,03,10.30
2014,04,26,13,04,10.20
2014,04,26,13,05,10.20
2014,04,26,13,06,10.20
2014,04,26,13,07,10.20
2014,04,26,13,08,10.20
2014,04,26,13,09,10.20
2014,04,26,13,10,10.30
2014,04,26,13,11,10.30
2014,04,26,13,12,10.30
2014,04,26,13,13,10.20
2014,04,26,13,14,10.20
2014,04,26,13,15,10.10
2014,04,26,13,16,10.10
2014,04,26,13,17,10.10
2014,04,26,13,18,10.10
2014,04,26,13,19,10.20
2014,04,26,13,20,10.20
2014,04,26,13,21,10.10
2014,04,26,13,22,10.10
2014,04,26,13,23,10.10
2014,04,26,13,24,10.10
2014,04,26,13,25,10.10
2014,04,26,13,26,10.10
2014,04,26,13,27,10.20
2014,04,26,13,28,10.20
2014,04,26,13,29,10.30
2014,04,26,13,30,10.30
2014,04,26,13,31,10.30
2014,04,26,13,32,10.30
2014,04,26,13,33,10.20
2014,04,26,13,34,10.20
2014,04,26,13,35,10.20
2014,04,26,13,36,10.10
2014,04,26,13,37,10.00
2014,04,26,13,38,9.90
2014,04,26,13,39,9.90
2014,04,26,13,40,9.90
2014,04,26,13,41,9.90
2014,04,26,13,42,10.00
2014,04,26,13,43,10.00
2014,04,26,13,44,10.00
2014,04,26,13,45,9.90
2014,04,26,13,46,10.00
2014,04,26,13,47,10.00
2014,04,26,13,48,10.10
2014,04,26,13,49,10.10
2014,04,26,13,50,10.10
2014,04,26,13,51,10.20
2014,04,26,13,52,10.20
2014,04,26,13,53,10.20
2014,04,26,13,54,10.30
2014,04,26,13,55,10.40
2014,04,26,13,56,10.50
2014,04,26,13,57,10.50
2014,04,26,13,58,10.50
2014,04,26,13,59,10.50
2014,04,26,14,00,10.40
2014,04,26,14,01,10.40
2014,04,26,14,02,10.40
2014,04,26,14,03,10.40
2014,04,26,14,04,10.50
2014,04,26,14,05,10.50
2014,04,26,14,06,10.60
2014,04,26,14,07,10.60
2014,04,26,14,08,10.70
2014,04,26,14,09,10.70
2014,04,26,14,10,10.80
2014,04,26,14,11,10.80
2014,04,26,14,12,10.80
2014,04,26,14,13,10.90
2014,04,26,14,14,10.90
2014,04,26,14,15,10.90
2014,04,26,14,16,10.90
2014,04,26,14,17,10.90
2014,04,26,14,18,10.90
2014,04,26,14,19,10.90
2014,04,26,14,20,10.90
2014,04,26,14,21,10.90
2014,04,26,14,22,10.90
2014,04,26,14,23,10.90
2014,04,26,14,24,10.90
2014,04,26,14,25,10.90
2014,04,26,14,26,10.90
2014,04,26,14,27,11.00
2014,04,26,14,28,11.10
2014,04,26,14,29,11.10
2014,04,26,14,30,11.10
2014,04,26,14,31,11.10
2014,04,26,14,32,11.00
2014,04,26,14,33,11.00
2014,04,26,14,34,11.00
2014,04,26,14,35,11.10
2014,04,26,14,36,11.10
2014,04,26,14,37,11.20
2014,04,26,14,38,11.20
2014,04,26,14,39,11.30
2014,04,26,14,40,11.30
2014,04,26,14,41,11.30
2014,04,26,14,42,11.30
2014,04,26,14,43,11.30
2014,04,26,14,44,11.30
2014,04,26,14,45,11.30
2014,04,26,14,46,11.40
2014,04,26,14,47,11.40
2014,04,26,14,48,11.40
2014,04,26,14,49,11.50
2014,04,26,14,50,11.50
2014,04,26,14,51,11.60
2014,04,26,14,52,11.60
2014,04,26,14,53,11.60
2014,04,26,14,54,11.60
2014,04,26,14,55,11.60
2014,04,26,14,56,11.60
2014,04,26,14,57,11.60
2014,04,26,14,58,11.60
2014,04,26,14,59,11.60
2014,04,26,15,00,11.60
2014,04,26,15,01,11.50
2014,04,26,15,02,11.50
2014,04,26,15,03,11.50
2014,04,26,15,04,11.50
2014,04,26,15,05,11.60
2014,04,26,15,06,11.60
2014,04,26,15,07,11.60
2014,04,26,15,08,11.70
2014,04,26,15,09,11.70
2014,04,26,15,10,11.70
2014,04,26,15,11,11.70
2014,04,26,15,12,11.70
2014,04,26,15,13,11.70
2014,04,26,15,14,11.70
2014,04,26,15,15,11.70
2014,04,26,15,16,11.70
2014,04,26,15,17,11.70
2014,04,26,15,18,11.70
2014,04,26,15,19,11.70
2014,04,26,15,20,11.70
2014,04,26,15,21,11.70
2014,04,26,15,22,11.70
2014,04,26,15,23,11.70
2014,04,26,15,24,11.70
2014,04,26,15,25,11.70
2014,04,26,15,26,11.70
2014,04,26,15,27,11.70
2014,04,26,15,28,11.80
2014,04,26,15,29,11.80
2014,04,26,15,30,11.80
2014,04,26,15,31,11.80
2014,04,26,15,32,11.80
2014,04,26,15,33,11.80
2014,04,26,15,34,11.80
2014,04,26,15,35,11.80
2014,04,26,15,36,11.90
2014,04,26,15,37,12.00
2014,04,26,15,38,12.10
2014,04,26,15,39,12.10
2014,04,26,15,40,12.20
2014,04,26,15,41,12.30
2014,04,26,15,42,12.30
2014,04,26,15,43,12.40
2014,04,26,15,44,12.40
2014,04,26,15,45,12.40
2014,04,26,15,46,12.50
2014,04,26,15,47,12.50
2014,04,26,15,48,12.50
2014,04,26,15,49,12.40
2014,04,26,15,50,12.30
2014,04,26,15,51,12.20
2014,04,26,15,52,12.10
2014,04,26,15,53,12.00
2014,04,26,15,54,11.90
2014,04,26,15,55,11.90
2014,04,26,15,56,11.80
2014,04,26,15,57,11.80
2014,04,26,15,58,11.80
2014,04,26,15,59,11.80
2014,04,26,16,00,11.80
2014,04,26,16,01,11.90
2014,04,26,16,02,11.90
2014,04,26,16,03,12.00
2014,04,26,16,04,12.00
2014,04,26,16,05,12.10
2014,04,26,16,06,12.10
2014,04,26,16,07,12.10
2014,04,26,16,08,12.10
2014,04,26,16,09,12.10
2014,04,26,16,10,12.10
2014,04,26,16,11,12.10
2014,04,26,16,12,12.20
2014,04,26,16,13,12.20
2014,04,26,16,14,12.30
2014,04,26,16,15,12.20
2014,04,26,16,16,12.20
2014,04,26,16,17,12.20
2014,04,26,16,18,12.20
2014,04,26,16,19,12.10
2014,04,26,16,20,12.10
2014,04,26,16,21,12.10
2014,04,26,16,22,12.10
2014,04,26,16,23,12.10
2014,04,26,16,24,12.10
2014,04,26,16,25,12.20
2014,04,26,16,26,12.20
2014,04,26,16,27,12.20
2014,04,26,16,28,12.30
2014,04,26,16,29,12.30
2014,04,26,16,30,12.30
2014,04,26,16,31,12.30
2014,04,26,16,32,12.30
2014,04,26,16,33,12.30
2014,04,26,16,34,12.20
2014,04,26,16,35,12.20
2014,04,26,16,36,12.10
2014,04,26,16,37,12.10
2014,04,26,16,38,12.10
2014,04,26,16,39,12.00
2014,04,26,16,40,11.90
2014,04,26,16,41,11.90
2014,04,26,16,42,11.80
2014,04,26,16,43,11.70
2014,04,26,16,44,11.70
2014,04,26,16,45,11.70
2014,04,26,16,46,11.70
2014,04,26,16,47,11.60
2014,04,26,16,48,11.60
2014,04,26,16,49,11.60
2014,04,26,16,50,11.60
2014,04,26,16,51,11.60
2014,04,26,16,52,11.60
2014,04,26,16,53,11.50
2014,04,26,16,54,11.50
2014,04,26,16,55,11.40
2014,04,26,16,56,11.40
2014,04,26,16,57,11.40
2014,04,26,16,58,11.40
2014,04,26,16,59,11.40
2014,04,26,17,00,11.40
2014,04,26,17,01,11.40
2014,04,26,17,02,11.30
2014,04,26,17,03,11.30
2014,04,26,17,04,11.30
2014,04,26,17,05,11.30
2014,04,26,17,06,11.30
2014,04,26,17,07,11.30
2014,04,26,17,08,11.30
2014,04,26,17,09,11.30
2014,04,26,17,10,11.30
2014,04,26,17,11,11.30
2014,04,26,17,12,11.30
2014,04,26,17,13,11.20
2014,04,26,17,14,11.20
2014,04,26,17,15,11.20
2014,04,26,17,16,11.20
2014,04,26,17,17,11.10
2014,04,26,17,18,11.10
2014,04,26,17,19,11.10
2014,04,26,17,20,11.10
2014,04,26,17,21,11.10
2014,04,26,17,22,11.10
2014,04,26,17,23,11.10
2014,04,26,17,24,11.10
2014,04,26,17,25,11.20
2014,04,26,17,26,11.20
2014,04,26,17,27,11.20
2014,04,26,17,28,11.20
2014,04,26,17,29,11.20
2014,04,26,17,30,11.20
2014,04,26,17,31,11.20
2014,04,26,17,32,11.20
2014,04,26,17,33,11.30
2014,04,26,17,34,11.30
2014,04,26,17,35,11.30
2014,04,26,17,36,11.30
2014,04,26,17,37,11.30
2014,04,26,17,38,11.30
2014,04,26,17,39,11.30
2014,04,26,17,40,11.30
2014,04,26,17,41,11.30
2014,04,26,17,42,11.30
2014,04,26,17,43,11.30
2014,04,26,17,44,11.30
2014,04,26,17,45,11.30